Location: Colonie
(42.7179°N, 73.8335°W)
Time: 04:56:46
(UTC+00:00)

Helios 1A Rocket - Pass Details

Date: 29 October 2020
Orbit: 562 x 587 km, 98.3° (Epoch: 29 November)

Event Time Altitude Azimuth Distance (km) Brightness Sun altitude
Rises 23:35:53 0° 175° (S) 2,792 6.4 -19.7°
Reaches altitude 10° 23:38:04 10° 179° (S) 1,895 5.5 -20.1°
Maximum altitude 23:42:07 58° 259° (W) 683 3.5 -20.9°
Drops below altitude 10° 23:46:10 10° 339° (NNW) 1,897 5.8 -21.6°
Sets 23:48:21 0° 343° (NNW) 2,796 6.7 -22.0°
